Regional Weather Roundup
Issued by NWS

Home | Current Version | Previous Version | Graphics & Text | Print | Product List | Glossary On
Versions: 1 2 3 4 5 6 7 8 9 10 11 12 13 14 15 16 17 18 19 20 21 22 23 24 25 26 27 28 29 30 31 32 33 34 35 36 37 38 39 40 41 42 43 44 45 46 47 48 49 50
000
ASUS44 KMEG 181600
RWRTN
TENNESSEE HOURLY STATE WEATHER ROUNDUP
NATIONAL WEATHER SERVICE MEMPHIS TN
1000 AM CST SAT NOV 18 2017

TNZ002-004-019-021-049-052-054-088>092-181700-
WEST TENNESSEE

CITY           SKY/WX    TMP DP  RH WIND       PRES   REMARKS
MEMPHIS INTL   PTSUNNY   71  63  75 S22G32    29.62F
NWS MEMPHIS      N/A     70 N/A N/A MISG        N/A
JACKSON        CLOUDY    70  63  78 SW16G36   29.63F
DYERSBURG      CLOUDY    73  63  70 SW18G29   29.56F
$$

TNZ008-025-027-028-033-062-065-066-181700-
NORTH MIDDLE TENNESSEE

CITY           SKY/WX    TMP DP  RH WIND       PRES   REMARKS
NASHVILLE      CLOUDY    65  57  75 S12G25    29.69F
CLARKSVILLE    CLOUDY    65  59  81 S13       29.62F
SMYRNA         CLOUDY    64  57  78 S14G22    29.70F
CROSSVILLE     CLOUDY    57  46  66 S12G22    29.80F
$$

TNZ061-075-076-078-094-096-097-181700-
SOUTH MIDDLE TENNESSEE

CITY           SKY/WX    TMP DP  RH WIND       PRES   REMARKS
WINCHESTER     CLOUDY    63  55  77 S12       29.82F
$$

TNZ017-018-042-046-047-181700-
NORTHEAST TENNESSEE

CITY           SKY/WX    TMP DP  RH WIND       PRES   REMARKS
TRI CITIES     CLOUDY    57  38  48 SW5       29.83F
$$

TNZ012-013-036-069-073-074-181700-
CENTRAL EAST TENNESSEE

CITY           SKY/WX    TMP DP  RH WIND       PRES   REMARKS
KNOXVILLE      CLOUDY    63  52  67 SW21G30   29.81F
OAK RIDGE      CLOUDY    56  45  66 VRB5      29.85F
$$

TNZ083-085-099-181700-
SOUTHEAST TENNESSEE

CITY           SKY/WX    TMP DP  RH WIND       PRES   REMARKS
CHATTANOOGA    CLOUDY    60  45  57 S12       29.87F
$$

SKY/WX REPORTED AS FAIR MEANS FEW OR NO CLOUDS BELOW
12 THOUSAND FEET.





USA.gov is the U.S. government's official web portal to all federal, state and local government web resources and services.